This is the latest recevied weather packets stored in our database for station/object SA7AHC. If no packets are shown the sender has not sent any weather packets the latest 10 day(s).
| Time | Temp. | Humidity | Pressure | Rain* | Wind** | Luminosity | Snow |
|---|---|---|---|---|---|---|---|
| 1777737211 | 22.78° C | 28% | 1014.5 hPa | 0 mm | - | 320 W/m² | - |
| 1777736614 | 22.78° C | 28% | 1014.5 hPa | 0 mm | - | 343 W/m² | - |
| 1777736013 | 23.33° C | 28% | 1015 hPa | 0 mm | - | 367 W/m² | - |
| 1777735411 | 23.33° C | 28% | 1015 hPa | 0 mm | - | 390 W/m² | - |
| 1777734812 | 23.33° C | 27% | 1015 hPa | 0 mm | - | 415 W/m² | - |
| 1777734212 | 23.89° C | 27% | 1015 hPa | 0 mm | - | 438 W/m² | - |
| 1777733610 | 23.33° C | 28% | 1015 hPa | 0 mm | - | 461 W/m² | - |
| 1777733008 | 23.33° C | 28% | 1015.4 hPa | 0 mm | - | 485 W/m² | - |
| 1777732408 | 23.33° C | 28% | 1015.5 hPa | 0 mm | - | 506 W/m² | - |
| 1777731802 | 23.33° C | 28% | 1015.5 hPa | 0 mm | - | 524 W/m² | - |
| 1777731209 | 23.33° C | 28% | 1015.6 hPa | 0 mm | - | 543 W/m² | - |
| 1777730602 | 23.33° C | 30% | 1015.9 hPa | 0 mm | - | 564 W/m² | - |
| 1777730001 | 23.33° C | 29% | 1016 hPa | 0 mm | - | 580 W/m² | - |
| 1777729398 | 23.33° C | 30% | 1016.1 hPa | 0 mm | - | 598 W/m² | - |
| 1777728803 | 23.33° C | 32% | 1016.2 hPa | 0 mm | - | 313 W/m² | - |
| 1777727594 | 23.33° C | 32% | 1016.5 hPa | 0 mm | - | 345 W/m² | - |
| 1777726991 | 22.78° C | 30% | 1016.7 hPa | 0 mm | - | 659 W/m² | - |
| 1777726394 | 22.78° C | 31% | 1016.7 hPa | 0 mm | - | 362 W/m² | - |
| 1777725789 | 22.78° C | 31% | 1017 hPa | 0 mm | - | 682 W/m² | - |
| 1777725187 | 23.33° C | 32% | 1017.2 hPa | 0 mm | - | 689 W/m² | - |
| 1777724589 | 22.78° C | 34% | 1017.2 hPa | 0 mm | - | 701 W/m² | - |
| 1777723987 | 22.78° C | 32% | 1017.3 hPa | 0 mm | - | 714 W/m² | - |
| 1777723390 | 23.33° C | 32% | 1017.8 hPa | 0 mm | - | 406 W/m² | - |
| 1777722789 | 22.78° C | 33% | 1017.8 hPa | 0 mm | - | 654 W/m² | - |
| 1777722186 | 22.78° C | 32% | 1017.9 hPa | 0 mm | - | 457 W/m² | - |
* Rain latest hour (hover to see other rain measurements)
** Current wind speed in m/s (hover to see current wind gust speed)